Tracking 27188 objects as of 1-Apr-2023
HD Live streaming from Space Station
objects crossing your sky now

STARLINK-5328

Track STARLINK-5328 now!
10-day predictions
STARLINK-5328 is classified as:


NORAD ID: 55657
Int'l Code: 2023-021AF
Perigee: 364.3 km
Apogee: 368.3 km
Inclination: 70.0 °
Period: 91.7 minutes
Semi major axis: 6737 km
RCS: Unknown
Launch date: February 17, 2023
Source: United States (US)
Launch site: AIR FORCE WESTERN TEST RANGE (AFWTR)
Your satellite tracking list
Your tracking list is empty




NASA's NSSDC Master Catalog

Two Line Element Set (TLE):
1 55657U 23021AF  23091.22331344 -.00002588  00000-0 -19779-4 0  9995
2 55657  70.0002  30.5700 0002959 263.2952  96.7907 15.69904262  7209
Source of the keplerian elements: AFSPC